Location: Gleizolles
(44.4833°N, 6.7667°E)
Time: 16:44:43
(UTC+00:00)

Tiros 1 - Pass Details

Date: 03 July 2024
Orbit: 624 x 656 km, 48.4° (Epoch: 13 July)

Event Time Altitude Azimuth Distance (km) Brightness Sun altitude
Rises 20:39:05 0° 259° (W) 2,902 10.9 -11.3°
Reaches altitude 10° 20:41:25 10° 262° (W) 1,994 10.1 -11.6°
Maximum altitude 20:45:58 65° 345° (NNW) 685 7.5 -12.1°
Drops below altitude 10° 20:50:32 10° 68° (ENE) 1,997 9.5 -12.6°
Sets 20:52:53 0° 71° (ENE) 2,907 10.3 -12.9°
